Wind_Speed
30 30 31 32 33 33 34 34 33 33 32 31 31 30 30 30 30 29 27 27 28 29 29 30 30 30 31 32 34 36 36 35 36 36 34 32 31 31 30 31 33 32
30 30 31 32 34 35 35 35 35 35 34 33 33 32 32 31 30 30 28 28 29 30 30 31 31 32 32 33 35 36 36 36 37 36 34 30 30 31 30 31 32 32
30 31 32 33 34 36 36 37 37 36 35 34 34 34 33 32 31 30 29 29 30 31 31 32 33 33 34 34 35 36 37 37 38 36 33 30 29 31 31 32 32 31
32 32 32 33 35 36 37 38 38 38 37 36 35 35 35 34 33 31 31 31 31 32 32 33 33 34 35 36 36 37 37 39 39 36 33 30 29 31 32 32 32 32
33 34 34 35 36 37 38 39 39 39 38 37 37 36 36 35 34 33 33 33 33 33 33 33 34 35 36 37 37 38 39 39 39 35 31 29 28 29 31 32 32 32
35 35 35 36 36 38 39 40 40 40 39 39 38 37 37 36 36 36 35 35 35 35 34 34 34 35 37 37 38 39 40 40 39 34 30 28 28 29 31 32 32 31
35 35 36 37 37 39 40 41 41 40 40 39 39 38 38 37 37 37 37 37 36 36 35 34 35 36 37 38 39 39 40 40 39 35 30 27 27 29 29 30 31 30
36 37 37 38 38 40 41 41 41 40 40 40 40 40 39 39 39 39 39 38 38 37 36 35 36 36 38 39 39 39 39 39 38 35 31 27 26 28 28 28 29 29
38 38 38 38 39 40 41 41 41 40 40 40 40 41 40 40 40 40 40 40 39 38 37 36 36 36 38 39 39 39 39 38 36 33 30 28 27 28 28 28 28 29
39 38 39 39 40 41 41 41 41 41 40 41 41 41 41 41 42 42 42 41 40 39 38 37 37 36 37 38 38 38 38 38 37 32 29 29 29 29 28 29 30 30
39 39 39 40 40 41 41 41 41 41 41 41 41 42 42 42 42 43 43 42 41 41 40 39 38 36 36 37 37 38 38 38 37 33 29 28 28 29 29 28 29 30
40 40 40 40 41 41 41 41 41 41 41 41 41 42 42 42 43 43 44 44 43 43 42 41 40 38 36 37 38 38 38 38 37 34 31 28 28 29 28 29 29 29
41 41 41 41 41 41 41 42 42 42 42 42 42 43 43 43 44 45 46 46 45 45 44 43 42 39 37 37 38 38 38 37 37 35 31 29 28 27 28 29 30 28
41 41 40 41 41 41 41 42 42 42 43 43 44 44 45 45 46 47 48 48 48 47 45 44 42 40 38 37 38 39 38 37 36 34 31 29 28 27 27 29 30 29
40 40 40 40 40 40 41 41 42 43 43 44 45 46 46 47 47 47 47 48 48 47 46 44 43 41 39 37 37 38 38 37 36 33 30 27 27 27 28 29 30 30
40 40 40 40 40 40 41 41 42 43 43 44 45 46 46 46 46 46 46 46 47 47 46 45 44 42 40 37 36 37 37 36 35 33 30 26 25 25 26 28 29 29
40 41 41 41 41 42 42 42 43 43 43 44 45 45 46 46 46 46 47 47 48 47 47 46 45 43 41 38 36 36 36 36 34 32 30 27 25 25 25 26 27 29
41 41 42 42 42 42 43 43 43 44 44 45 45 46 46 47 47 47 48 48 49 49 48 48 46 44 43 40 37 35 36 36 34 32 30 28 27 26 25 26 27 28
42 42 43 43 43 43 43 44 44 44 45 46 47 47 48 48 49 49 49 50 50 51 50 49 48 46 44 41 38 36 36 37 35 33 30 29 27 26 26 27 28 28
44 44 44 44 45 45 45 45 46 46 47 48 49 49 49 50 51 51 51 52 52 53 52 51 50 48 45 43 39 36 35 36 37 34 31 30 28 27 26 27 28 29
44 44 44 44 45 45 46 47 47 48 48 49 50 51 51 52 52 53 53 53 54 54 54 53 51 49 47 44 42 38 35 35 37 36 33 31 29 28 27 28 28 29
44 44 44 44 45 46 46 47 48 49 49 50 51 52 52 53 53 54 54 54 54 54 54 54 53 51 49 46 43 41 37 35 36 37 35 32 31 29 28 29 30 30
44 45 45 46 47 47 48 49 50 51 51 52 52 53 54 54 54 55 55 55 55 55 55 55 54 53 51 49 45 43 39 37 37 38 37 34 32 31 29 30 31 32
44 45 46 47 48 49 50 51 52 53 54 54 55 56 56 57 57 58 58 57 57 57 57 56 56 55 54 52 49 46 43 39 37 38 39 37 34 33 31 30 31 32
43 44 45 46 47 48 49 50 51 52 54 55 56 57 57 58 58 59 60 60 60 60 60 59 59 58 56 54 52 49 46 43 40 40 40 40 37 35 33 32 31 31
41 42 43 44 45 46 47 49 50 52 53 54 55 57 57 58 59 59 59 60 61 61 61 61 61 60 59 57 54 50 47 45 43 42 42 42 40 37 36 35 33 32
Wind_Direction
294 295 295 295 294 293 293 292 292 292 292 293 294 295 298 298 299 301 303 303 304 307 310 311 310 309 307 308 309 310 312 311 307 302 296 291 284 275 269 267 263 259
292 294 294 294 294 293 292 291 291 291 292 293 294 295 297 299 299 301 301 301 303 306 308 309 308 307 307 308 308 310 312 311 307 301 293 287 282 276 270 267 262 257
291 292 293 293 293 292 291 290 289 290 291 292 293 294 295 296 297 298 298 298 300 304 307 306 306 306 306 307 308 310 311 310 305 299 291 285 281 277 272 267 262 257
290 291 292 292 291 290 289 288 288 289 289 290 291 292 294 295 296 296 295 296 298 302 304 304 305 305 306 308 309 310 312 309 304 297 290 285 281 277 271 265 260 255
290 291 291 291 290 289 287 287 287 287 288 289 290 292 293 294 295 295 294 295 298 301 303 303 304 305 306 308 309 311 312 310 305 297 288 282 279 273 266 261 259 253
291 291 290 290 289 288 286 285 285 285 286 287 288 291 292 293 294 294 295 296 298 300 302 303 304 305 306 308 309 311 313 313 308 298 285 279 275 268 261 258 258 254
290 289 289 288 287 285 285 284 284 284 285 286 288 290 291 292 293 294 295 297 299 300 301 302 303 305 306 307 309 311 313 314 310 299 286 278 272 265 259 256 256 255
289 288 287 286 285 284 284 283 283 284 285 286 288 289 291 292 293 294 296 297 298 299 301 301 302 304 306 307 308 310 311 312 311 302 289 278 269 264 260 257 256 255
288 287 286 285 284 283 283 283 283 284 285 286 288 290 291 292 293 294 295 297 298 299 299 300 302 304 305 307 308 309 309 311 311 304 291 280 272 266 261 257 258 256
287 286 285 284 284 283 282 282 282 283 285 286 288 290 291 292 293 294 295 295 296 298 299 300 302 303 304 305 308 309 309 312 313 305 291 281 275 268 260 256 257 254
287 286 285 285 284 283 282 282 282 283 285 287 288 290 291 292 292 293 294 295 296 298 299 300 302 303 303 304 307 310 310 312 313 307 292 281 275 269 261 256 256 252
288 288 287 286 285 283 283 282 283 284 285 286 288 289 290 291 291 292 293 294 295 297 299 300 302 303 303 304 307 309 311 312 312 308 294 282 276 271 264 258 256 252
289 289 288 287 286 285 284 284 284 284 285 286 286 287 288 289 290 291 292 293 294 296 298 299 301 303 303 304 305 307 309 310 311 308 296 283 276 272 267 262 257 253
289 289 288 287 286 285 284 284 284 284 285 285 286 286 287 288 289 290 291 292 293 295 297 298 300 301 303 304 304 306 307 308 309 308 298 285 278 274 269 266 261 254
290 290 289 288 287 286 286 285 285 285 285 285 286 287 287 288 289 289 290 291 292 293 295 296 298 299 301 302 303 303 305 305 307 308 301 287 279 276 272 268 261 252
291 291 290 290 289 288 288 287 287 286 286 286 287 287 288 289 289 289 290 290 291 293 294 295 296 297 298 299 299 299 301 303 305 307 302 290 279 274 272 270 262 251
291 292 291 291 290 289 289 288 288 287 287 287 287 288 288 289 289 289 290 290 291 292 293 294 295 295 296 297 296 296 297 299 301 304 302 292 281 273 270 268 262 254
291 292 292 291 290 289 288 288 287 287 287 287 287 288 288 288 289 289 289 290 290 291 292 293 293 294 294 294 294 293 292 294 297 300 300 294 284 275 268 263 258 253
290 291 291 290 290 289 289 288 288 287 287 286 286 287 287 287 288 288 289 289 290 290 291 292 292 292 293 293 292 290 289 290 292 294 296 294 286 277 270 262 255 250
290 290 290 289 289 288 288 288 288 287 287 286 286 286 286 286 287 287 287 288 288 289 289 290 290 291 291 290 290 288 286 285 287 289 291 292 289 280 272 264 255 248
291 290 290 289 288 288 287 287 287 286 286 285 285 285 285 284 284 285 285 285 285 286 286 287 288 288 288 288 287 285 283 281 282 284 285 286 287 282 273 264 255 247
292 292 291 291 290 289 289 288 287 286 286 285 284 284 284 283 283 282 282 282 282 282 283 284 284 285 285 285 284 283 281 278 277 279 280 280 281 280 274 266 258 251
293 293 293 292 292 291 290 290 289 288 287 286 285 284 283 283 282 281 280 280 280 280 280 280 281 282 282 282 281 280 278 275 273 274 276 276 275 275 274 269 262 255
293 294 294 294 293 293 292 291 291 290 288 287 286 285 284 283 282 281 280 279 278 277 277 277 278 279 280 280 280 278 276 273 270 269 271 272 271 270 269 268 265 260
295 295 295 295 294 294 294 293 292 291 290 289 287 286 285 284 283 281 280 279 277 276 276 275 275 276 277 278 278 277 275 272 268 266 266 268 268 266 265 264 264 261
296 296 297 296 296 296 295 295 294 293 292 290 289 287 286 285 283 282 280 279 278 276 275 274 274 274 275 275 276 276 274 271 268 265 263 263 264 263 262 261 260 259
Height
5800 5799 5797 5796 5795 5794 5793 5792 5791 5790 5789 5788 5787 5786 5786 5784 5782 5781 5780 5779 5777 5776 5776 5775 5774 5773 5771 5770 5769 5767 5765 5764 5761 5758 5758 5758 5757 5756 5756 5757 5757 5757
5796 5796 5795 5793 5792 5790 5789 5788 5787 5786 5785 5784 5782 5781 5781 5780 5778 5777 5776 5775 5774 5773 5772 5771 5770 5769 5767 5766 5765 5763 5761 5759 5756 5753 5752 5752 5751 5751 5751 5752 5752 5753
5793 5792 5791 5790 5789 5787 5786 5785 5784 5782 5781 5780 5779 5777 5776 5775 5774 5773 5773 5771 5770 5770 5769 5767 5766 5764 5763 5762 5761 5759 5757 5754 5752 5749 5746 5746 5747 5746 5747 5747 5747 5748
5790 5789 5788 5787 5786 5784 5783 5781 5780 5779 5777 5776 5775 5774 5772 5771 5770 5769 5768 5767 5767 5766 5765 5764 5762 5760 5759 5757 5756 5754 5752 5749 5746 5744 5742 5741 5742 5742 5742 5742 5743 5744
5786 5785 5784 5783 5782 5780 5779 5778 5776 5775 5774 5772 5771 5770 5768 5767 5766 5765 5764 5763 5763 5762 5761 5760 5758 5757 5755 5753 5752 5750 5747 5744 5740 5739 5737 5736 5737 5737 5736 5737 5738 5739
5782 5781 5780 5779 5778 5777 5775 5774 5773 5771 5770 5769 5767 5766 5764 5763 5762 5761 5760 5759 5758 5758 5757 5756 5755 5753 5751 5749 5747 5745 5743 5739 5736 5734 5733 5731 5731 5731 5731 5731 5733 5734
5778 5777 5776 5775 5774 5772 5771 5770 5769 5767 5766 5764 5763 5762 5761 5759 5758 5757 5756 5755 5754 5753 5753 5752 5751 5749 5747 5745 5744 5741 5739 5736 5732 5730 5728 5727 5726 5726 5726 5727 5728 5730
5774 5773 5772 5771 5769 5768 5767 5765 5765 5763 5762 5760 5759 5758 5756 5755 5754 5753 5752 5751 5750 5749 5749 5748 5746 5745 5743 5741 5740 5738 5735 5732 5729 5727 5725 5723 5722 5722 5723 5724 5725 5725
5769 5768 5767 5766 5765 5764 5762 5761 5760 5759 5758 5756 5755 5754 5752 5751 5750 5749 5747 5746 5745 5745 5745 5744 5742 5741 5739 5737 5736 5734 5732 5729 5726 5723 5721 5720 5719 5719 5720 5720 5721 5722
5765 5764 5763 5762 5761 5759 5758 5757 5756 5755 5753 5752 5751 5749 5748 5747 5745 5744 5743 5742 5741 5740 5740 5739 5738 5737 5735 5733 5732 5730 5727 5725 5723 5720 5718 5717 5716 5716 5716 5716 5717 5718
5760 5759 5759 5758 5756 5755 5754 5753 5751 5750 5749 5748 5746 5745 5744 5742 5741 5739 5738 5737 5736 5735 5734 5734 5733 5733 5731 5729 5727 5726 5723 5721 5719 5716 5714 5713 5713 5713 5713 5712 5712 5714
5756 5755 5754 5753 5752 5750 5749 5748 5746 5745 5744 5743 5742 5740 5739 5738 5736 5735 5733 5732 5731 5730 5729 5729 5728 5727 5726 5725 5723 5721 5719 5717 5715 5712 5710 5709 5709 5709 5709 5709 5708 5709
5751 5750 5749 5748 5747 5746 5744 5743 5742 5740 5739 5738 5737 5735 5734 5733 5732 5730 5728 5727 5726 5725 5724 5724 5723 5723 5722 5720 5719 5717 5715 5713 5711 5709 5706 5705 5705 5705 5705 5705 5705 5706
5746 5745 5744 5743 5742 5741 5740 5738 5737 5736 5734 5733 5732 5730 5729 5728 5727 5726 5724 5722 5721 5720 5720 5719 5718 5718 5717 5716 5714 5713 5711 5709 5707 5705 5703 5701 5701 5702 5701 5701 5701 5703
5742 5741 5740 5738 5737 5736 5735 5734 5732 5731 5729 5728 5727 5725 5724 5723 5722 5721 5719 5718 5716 5715 5714 5714 5713 5713 5713 5712 5711 5708 5707 5705 5703 5702 5700 5698 5697 5698 5698 5697 5698 5699
5738 5737 5735 5734 5733 5731 5730 5729 5727 5726 5724 5723 5721 5720 5719 5718 5716 5715 5714 5713 5711 5710 5709 5708 5708 5708 5707 5707 5707 5705 5703 5701 5700 5698 5696 5695 5694 5693 5693 5694 5694 5695
5734 5732 5731 5729 5728 5727 5725 5724 5722 5721 5719 5718 5716 5715 5714 5712 5711 5710 5709 5707 5706 5705 5704 5703 5703 5703 5702 5702 5702 5701 5699 5697 5696 5695 5693 5691 5690 5690 5690 5690 5689 5690
5729 5728 5726 5724 5723 5722 5720 5719 5717 5716 5715 5713 5712 5710 5709 5707 5706 5705 5703 5702 5700 5699 5699 5698 5697 5697 5697 5697 5697 5696 5695 5693 5692 5690 5689 5688 5686 5685 5685 5685 5685 5686
5725 5723 5721 5720 5718 5717 5715 5714 5713 5711 5710 5708 5706 5705 5704 5702 5700 5699 5698 5696 5695 5693 5693 5692 5691 5691 5691 5691 5691 5691 5690 5688 5687 5686 5685 5683 5682 5681 5681 5681 5681 5682
5720 5718 5716 5714 5713 5712 5710 5708 5707 5706 5705 5703 5701 5699 5698 5697 5695 5693 5692 5691 5689 5688 5687 5686 5685 5684 5685 5685 5685 5685 5685 5683 5682 5681 5680 5679 5678 5677 5677 5677 5677 5678
5714 5712 5711 5709 5707 5706 5704 5703 5701 5700 5699 5697 5695 5693 5692 5691 5689 5687 5686 5685 5683 5682 5680 5679 5679 5678 5678 5679 5679 5679 5679 5678 5677 5676 5675 5675 5674 5673 5673 5673 5673 5674
5708 5706 5705 5703 5701 5700 5698 5697 5695 5693 5692 5690 5689 5687 5685 5684 5682 5681 5680 5679 5677 5676 5674 5673 5672 5671 5671 5672 5672 5673 5673 5673 5672 5671 5670 5670 5670 5669 5669 5668 5669 5670
5703 5701 5699 5697 5695 5694 5692 5690 5688 5687 5685 5683 5682 5680 5678 5677 5675 5673 5672 5671 5670 5669 5668 5666 5665 5664 5664 5664 5665 5666 5666 5666 5666 5665 5665 5665 5665 5664 5664 5664 5664 5664
5698 5696 5694 5691 5689 5688 5686 5684 5682 5680 5678 5676 5674 5672 5670 5669 5667 5665 5664 5663 5662 5661 5660 5659 5658 5657 5657 5656 5657 5658 5659 5660 5660 5659 5659 5659 5659 5659 5659 5659 5659 5659
5693 5691 5688 5686 5684 5682 5680 5677 5675 5673 5670 5668 5666 5664 5662 5660 5658 5657 5655 5654 5653 5652 5652 5651 5650 5649 5649 5648 5648 5649 5651 5652 5653 5653 5652 5652 5652 5653 5653 5653 5654 5654
5688 5686 5684 5681 5679 5676 5674 5671 5668 5666 5663 5660 5658 5656 5654 5651 5649 5647 5646 5645 5643 5642 5643 5642 5641 5640 5640 5640 5640 5641 5642 5643 5645 5645 5645 5646 5646 5646 5647 5647 5648 5648